Wind_Speed
33 38 37 33 29 23 18 18 21 21 21 12 9 15 9 6 9 25 28 24 19 18 17 17 16 16 16 16 18 18 16 14 12 8 5 4 4 5 7 7 6 7 7 7
37 34 36 36 35 37 28 24 16 20 22 16 21 17 15 9 10 17 21 20 21 18 18 17 17 17 16 16 19 19 18 15 12 9 8 6 6 4 6 7 7 10 9 9
35 34 36 40 40 34 31 26 28 22 21 18 19 19 15 16 14 15 18 24 24 20 19 19 19 18 16 17 19 21 20 17 14 11 10 9 7 6 7 8 8 10 11 11
35 41 40 39 38 33 31 26 29 18 21 17 15 16 19 18 17 17 20 18 23 22 21 22 20 19 18 19 18 20 21 19 16 14 11 7 6 7 8 9 9 10 10 12
38 43 41 38 34 34 24 32 29 29 19 16 18 30 26 27 21 19 23 17 22 19 18 22 22 21 21 18 16 16 19 19 18 16 12 8 8 9 14 11 10 9 9 9
29 41 39 38 35 32 32 34 38 28 23 24 19 20 21 22 23 24 21 22 17 15 14 20 23 23 21 18 17 14 16 20 19 18 15 10 11 10 11 11 11 10 8 8
42 41 40 42 39 39 39 34 28 28 27 22 20 24 39 19 26 26 28 20 16 12 12 19 20 20 21 19 17 15 14 17 21 20 18 14 13 12 13 13 12 11 10 10
35 37 44 44 36 38 37 31 25 22 25 23 17 31 43 37 27 31 26 19 20 16 16 15 16 20 21 21 19 18 16 16 20 23 20 16 15 14 15 16 14 12 11 11
23 23 43 44 45 44 39 36 23 18 18 22 30 43 41 42 30 30 28 25 23 18 15 19 18 21 22 21 24 23 20 19 19 24 22 19 17 18 17 17 18 15 13 12
27 32 38 42 41 39 40 34 31 27 24 27 32 34 38 39 31 33 31 28 23 21 22 22 20 17 37 23 26 27 24 22 23 24 26 22 20 21 19 19 19 18 16 15
31 25 36 40 43 40 38 40 35 29 20 31 20 23 44 37 34 33 30 25 23 24 20 20 25 28 33 27 26 25 27 24 23 24 26 26 23 23 21 21 20 20 19 18
37 32 23 30 42 43 46 32 36 30 30 26 25 36 41 26 31 35 34 30 27 26 25 23 29 21 19 28 26 18 28 27 25 26 25 27 28 25 23 23 22 21 21 20
38 29 22 31 36 40 41 42 42 29 24 29 30 34 25 30 34 34 35 35 33 31 30 28 27 23 26 26 26 21 26 29 28 27 27 27 28 29 26 26 24 23 23 22
39 30 24 21 20 28 38 44 45 45 32 20 30 38 30 35 32 36 35 37 37 35 35 34 34 32 31 24 22 20 24 25 25 24 23 28 29 28 31 30 28 26 25 24
34 38 37 37 39 37 38 41 43 44 39 25 33 41 48 41 37 34 35 37 39 39 40 40 37 35 32 28 24 25 21 24 27 28 30 30 31 32 30 32 33 31 28 26
25 38 37 40 41 44 42 42 41 45 48 39 31 41 50 47 42 38 37 39 39 40 44 44 44 43 39 37 34 29 28 28 26 29 30 31 29 27 32 31 31 35 34 31
21 22 35 35 41 42 45 46 43 44 46 43 37 55 46 41 44 43 40 40 41 43 44 45 45 45 45 43 42 40 39 36 33 30 30 33 32 32 32 32 33 32 33 36
26 25 25 29 39 44 39 44 43 49 48 49 55 57 51 49 46 41 44 43 44 45 45 45 46 47 47 47 47 47 45 44 43 39 36 37 39 38 36 35 35 35 35 36
28 26 27 27 28 23 40 41 41 42 47 43 51 53 50 47 49 48 48 47 47 48 48 49 49 49 50 49 49 49 50 49 48 47 46 45 44 41 42 38 37 37 37 39
22 25 30 29 31 23 27 31 32 39 44 43 46 47 46 46 47 53 48 51 51 52 52 52 52 52 51 51 52 52 51 51 51 50 49 49 49 44 43 37 40 39 41 40
24 24 24 26 29 31 36 26 26 29 35 42 43 46 45 49 50 52 46 47 50 53 54 54 55 56 56 55 54 54 54 55 54 55 54 52 51 51 49 45 43 44 44 44
29 29 28 28 30 33 30 30 33 35 34 36 33 35 39 42 44 49 50 48 48 51 53 55 56 57 58 60 59 59 59 58 58 58 58 58 56 55 54 51 48 50 49 43
25 30 34 35 38 35 35 36 35 37 38 39 39 38 40 39 40 42 44 42 43 43 44 47 51 55 58 60 62 63 64 64 64 63 62 62 62 61 60 58 56 55 53 53
16 21 26 29 34 35 37 38 39 41 42 42 41 40 41 42 43 44 46 45 46 47 48 49 50 51 53 57 60 62 64 68 70 69 69 67 66 67 67 65 64 62 62 58
19 17 18 21 24 28 30 32 32 34 36 38 40 41 41 43 44 46 47 47 49 51 52 53 54 56 57 59 60 61 63 64 65 69 72 72 73 72 71 72 71 69 68 66
28 28 26 24 23 22 23 22 23 25 27 29 31 33 34 36 39 41 41 42 43 45 43 44 45 46 51 57 62 64 66 67 68 68 69 73 76 77 77 77 75 76 74 73
Wind_Direction
211 211 210 213 212 203 210 203 207 211 209 205 234 222 195 180 197 197 174 190 192 196 200 203 205 204 202 199 199 193 189 187 180 174 158 180 205 180 154 151 148 140 134 133
209 210 207 209 207 197 185 198 224 211 212 186 219 230 205 209 204 202 191 192 195 204 204 204 206 207 208 207 203 199 196 198 191 176 178 183 194 211 166 159 156 145 139 135
209 205 207 208 211 205 198 190 210 212 205 201 211 228 216 211 202 204 215 203 200 200 205 205 209 209 212 214 209 204 203 202 198 193 199 192 183 205 190 178 170 152 147 143
203 202 205 209 212 206 205 184 228 204 202 201 209 228 244 228 219 217 220 218 204 207 200 204 208 207 214 219 216 207 207 207 204 205 211 208 178 193 194 186 175 168 154 148
203 206 204 205 206 204 192 201 193 208 189 218 205 224 187 219 218 211 220 191 216 207 203 206 209 210 213 216 221 220 210 210 210 210 219 211 208 170 234 193 187 178 163 155
202 209 200 201 203 195 197 212 208 211 198 208 209 221 269 219 210 209 216 200 206 211 208 208 210 214 219 214 216 218 224 217 215 215 215 219 221 219 220 201 199 181 175 173
210 204 199 195 201 194 206 204 201 211 207 208 208 216 234 238 218 217 209 201 219 222 218 213 221 221 221 220 217 213 220 226 222 219 220 211 224 219 222 212 206 194 179 182
212 208 202 199 193 207 207 204 197 204 205 205 205 228 237 241 222 217 222 219 229 238 238 231 232 227 223 222 223 220 216 222 225 223 225 215 219 222 219 217 207 203 198 190
211 205 211 201 200 202 204 196 182 208 215 204 219 215 227 227 224 217 217 221 230 234 245 229 218 230 222 228 221 222 220 219 226 225 227 222 219 222 223 219 213 204 218 217
172 220 213 207 209 210 203 196 191 197 198 203 224 243 248 238 222 219 222 225 225 230 237 231 234 242 216 217 215 222 225 220 221 222 225 225 223 227 227 223 218 210 212 221
185 199 212 209 207 207 208 201 189 204 190 200 220 223 248 233 220 218 217 219 214 223 229 227 229 235 219 206 208 220 225 228 228 227 226 227 225 227 227 226 224 219 217 220
208 201 227 212 213 210 200 201 204 195 205 201 215 229 245 242 223 219 218 220 215 224 225 222 237 209 214 192 200 214 229 228 232 234 230 229 230 232 233 233 228 225 224 224
207 197 210 218 217 215 214 210 203 201 199 216 211 252 244 238 226 216 216 216 219 220 230 230 239 240 243 239 212 205 223 223 224 237 236 235 234 233 235 240 239 231 229 231
205 196 196 218 221 220 217 215 212 208 202 208 221 242 242 239 228 217 215 215 217 221 225 229 230 243 225 203 207 218 223 223 232 240 243 243 240 236 236 237 241 243 238 233
207 199 195 201 209 213 217 217 217 217 207 212 239 227 235 233 230 222 218 218 220 220 222 227 232 239 247 239 233 230 225 232 230 230 240 248 246 240 239 238 238 239 242 243
213 212 215 213 212 212 221 223 219 219 213 201 230 233 231 228 233 228 227 223 222 223 224 226 229 233 237 240 241 239 237 236 234 233 234 240 247 246 245 243 243 244 243 242
216 218 215 215 224 222 221 219 218 220 220 211 228 229 230 235 232 232 233 232 230 229 229 230 233 234 237 240 243 245 245 244 242 239 236 237 238 246 246 246 245 244 246 245
227 224 216 213 229 224 229 228 225 220 219 220 224 236 234 237 240 240 237 236 237 237 236 236 235 237 238 239 241 243 247 248 247 244 241 237 237 235 235 239 242 244 247 247
230 231 232 219 233 232 228 228 229 229 230 227 230 233 239 239 241 239 237 237 237 237 238 239 239 238 239 241 241 243 242 246 249 248 248 249 252 244 240 237 240 243 246 246
233 232 234 237 235 231 241 227 230 230 237 224 234 234 236 238 241 240 239 237 239 240 240 240 241 242 242 241 241 243 244 242 245 249 250 250 251 252 251 243 234 242 248 248
233 234 232 232 233 229 236 227 224 228 233 232 234 234 234 238 239 241 240 240 240 240 240 242 243 244 245 246 246 244 245 246 244 245 248 250 253 252 252 251 244 246 251 257
233 233 233 234 237 233 234 237 235 233 236 242 238 241 241 242 243 243 245 242 242 244 242 242 244 244 245 246 247 247 247 247 247 247 246 248 250 251 251 249 247 245 256 257
232 232 233 231 233 237 241 244 242 242 242 243 244 242 242 241 241 243 246 244 244 243 245 245 245 246 246 245 246 248 247 248 248 247 246 246 247 250 251 247 246 248 252 255
231 231 230 237 239 240 240 240 240 240 241 242 243 243 244 245 245 246 250 252 252 253 253 253 253 252 252 251 250 248 248 249 248 248 248 248 246 247 248 250 250 247 250 252
236 230 229 232 231 233 235 238 238 239 239 239 239 241 242 243 245 247 250 253 254 256 258 259 261 261 259 258 257 257 254 252 251 251 249 250 249 247 246 246 247 250 250 251
240 237 236 233 235 234 235 237 235 235 235 236 237 238 240 242 244 245 245 245 249 253 253 256 260 263 264 263 260 259 259 258 256 255 255 252 249 250 249 247 246 246 247 250
Height
5848 5853 5859 5866 5872 5878 5886 5890 5888 5889 5889 5895 5897 5896 5897 5897 5898 5899 5900 5905 5908 5911 5913 5916 5918 5920 5922 5923 5926 5928 5929 5931 5933 5935 5936 5938 5939 5940 5940 5941 5940 5940 5941 5941
5842 5848 5855 5859 5865 5868 5877 5889 5886 5887 5888 5893 5892 5894 5896 5896 5898 5900 5901 5903 5907 5910 5912 5915 5917 5918 5921 5923 5926 5928 5930 5931 5934 5936 5937 5938 5940 5942 5943 5943 5944 5943 5943 5944
5838 5845 5848 5853 5856 5867 5873 5886 5882 5885 5886 5890 5892 5892 5895 5896 5898 5899 5901 5903 5905 5907 5910 5913 5915 5917 5920 5923 5925 5928 5930 5931 5935 5937 5938 5938 5941 5944 5944 5945 5946 5946 5946 5946
5832 5834 5841 5847 5854 5863 5869 5879 5878 5883 5884 5891 5892 5895 5892 5895 5896 5898 5899 5901 5904 5906 5908 5910 5914 5917 5918 5921 5925 5927 5929 5931 5934 5937 5939 5941 5942 5943 5945 5946 5948 5949 5948 5948
5827 5828 5836 5843 5851 5857 5869 5873 5874 5878 5883 5888 5889 5886 5883 5889 5893 5896 5896 5898 5902 5905 5908 5910 5912 5914 5916 5920 5924 5926 5928 5931 5933 5936 5939 5942 5943 5945 5947 5947 5949 5951 5951 5952
5821 5825 5831 5840 5846 5853 5856 5864 5869 5874 5881 5887 5890 5891 5878 5883 5888 5893 5896 5897 5901 5904 5906 5908 5910 5912 5915 5918 5922 5925 5928 5930 5933 5935 5938 5942 5942 5945 5947 5947 5949 5951 5953 5953
5814 5820 5826 5831 5839 5845 5846 5858 5865 5871 5875 5884 5888 5891 5879 5878 5886 5889 5892 5893 5899 5903 5905 5908 5909 5911 5913 5916 5919 5923 5926 5928 5931 5934 5937 5940 5941 5943 5945 5947 5949 5952 5952 5954
5811 5817 5819 5826 5834 5840 5846 5854 5863 5868 5875 5882 5886 5883 5873 5879 5881 5885 5888 5892 5896 5899 5901 5905 5907 5910 5912 5914 5916 5919 5922 5925 5929 5932 5935 5938 5940 5942 5944 5947 5949 5952 5952 5954
5811 5813 5814 5821 5826 5832 5842 5846 5863 5872 5876 5881 5877 5869 5868 5873 5879 5884 5887 5890 5893 5897 5898 5900 5903 5905 5907 5911 5914 5916 5919 5922 5926 5929 5933 5936 5938 5941 5943 5946 5948 5950 5953 5957
5802 5807 5811 5817 5824 5829 5833 5846 5855 5861 5869 5876 5868 5866 5867 5869 5876 5880 5884 5888 5892 5894 5896 5899 5900 5902 5894 5900 5906 5911 5915 5919 5922 5925 5929 5933 5936 5939 5942 5944 5946 5948 5950 5954
5797 5805 5807 5812 5817 5824 5831 5837 5845 5858 5862 5870 5864 5862 5856 5863 5872 5876 5881 5884 5888 5890 5894 5895 5893 5892 5895 5899 5901 5905 5911 5915 5918 5923 5926 5930 5934 5936 5939 5942 5944 5947 5949 5951
5794 5799 5804 5809 5810 5817 5819 5831 5839 5846 5854 5857 5861 5848 5850 5861 5865 5871 5876 5879 5883 5884 5889 5889 5886 5869 5852 5885 5898 5894 5904 5911 5914 5918 5922 5926 5930 5934 5937 5939 5942 5945 5948 5950
5787 5796 5802 5804 5809 5812 5818 5825 5829 5840 5848 5851 5856 5843 5847 5854 5857 5864 5869 5874 5877 5881 5883 5885 5885 5885 5883 5886 5894 5886 5902 5908 5908 5913 5917 5921 5925 5930 5933 5936 5938 5941 5944 5948
5782 5789 5798 5798 5803 5807 5812 5817 5823 5828 5838 5847 5850 5840 5841 5846 5851 5856 5862 5867 5871 5874 5877 5879 5882 5882 5886 5889 5889 5893 5897 5901 5905 5909 5913 5916 5920 5924 5927 5931 5934 5938 5940 5944
5776 5779 5784 5786 5793 5799 5804 5810 5816 5823 5831 5837 5828 5832 5835 5841 5845 5850 5854 5859 5864 5868 5870 5873 5875 5876 5878 5882 5886 5889 5891 5896 5900 5903 5907 5909 5912 5916 5920 5924 5928 5931 5935 5939
5769 5775 5779 5784 5788 5791 5796 5802 5810 5813 5817 5825 5822 5820 5822 5833 5838 5843 5846 5851 5855 5859 5863 5866 5869 5873 5875 5877 5880 5884 5887 5890 5893 5897 5899 5902 5908 5912 5915 5918 5922 5925 5929 5932
5766 5770 5774 5780 5782 5786 5789 5792 5800 5805 5810 5818 5815 5811 5823 5826 5830 5834 5839 5843 5847 5851 5855 5859 5862 5866 5869 5872 5875 5878 5881 5884 5887 5890 5892 5897 5900 5904 5908 5912 5915 5919 5922 5925
5760 5764 5769 5773 5773 5779 5781 5787 5791 5794 5799 5801 5804 5804 5813 5818 5823 5827 5830 5834 5838 5843 5847 5850 5854 5858 5861 5864 5868 5871 5873 5876 5880 5884 5886 5889 5892 5896 5899 5903 5906 5910 5913 5917
5755 5759 5763 5767 5768 5772 5774 5778 5782 5786 5789 5794 5795 5799 5804 5809 5810 5815 5820 5824 5828 5832 5836 5840 5844 5848 5852 5855 5859 5861 5865 5867 5870 5874 5878 5881 5884 5888 5891 5894 5899 5902 5904 5908
5749 5752 5756 5759 5762 5768 5764 5769 5774 5777 5778 5786 5787 5791 5795 5799 5799 5800 5811 5815 5818 5821 5824 5828 5832 5836 5840 5844 5848 5851 5855 5858 5861 5864 5867 5871 5874 5878 5879 5883 5887 5890 5894 5899
5744 5746 5749 5751 5754 5756 5756 5763 5766 5769 5770 5775 5777 5780 5785 5784 5788 5797 5800 5804 5807 5811 5814 5817 5820 5823 5828 5832 5836 5839 5843 5846 5851 5854 5856 5859 5863 5867 5871 5875 5877 5880 5884 5888
5738 5740 5742 5745 5746 5749 5750 5755 5758 5760 5764 5765 5769 5772 5774 5778 5780 5783 5786 5791 5795 5798 5802 5806 5808 5812 5815 5818 5822 5826 5829 5834 5838 5841 5845 5848 5851 5855 5859 5863 5867 5870 5872 5876
5731 5732 5735 5737 5737 5741 5743 5745 5749 5751 5754 5756 5758 5762 5764 5767 5770 5772 5773 5779 5782 5786 5790 5793 5796 5799 5801 5805 5808 5811 5814 5819 5822 5826 5830 5835 5839 5842 5845 5850 5854 5858 5860 5864
5725 5725 5726 5729 5730 5732 5734 5736 5739 5742 5745 5747 5749 5752 5754 5757 5760 5762 5763 5767 5770 5773 5776 5780 5783 5786 5788 5791 5793 5796 5799 5802 5806 5810 5814 5819 5824 5827 5831 5835 5839 5843 5846 5851
5720 5720 5720 5721 5722 5723 5725 5727 5729 5732 5735 5737 5740 5742 5745 5747 5749 5751 5753 5756 5758 5760 5762 5765 5767 5770 5773 5776 5778 5780 5783 5787 5790 5793 5797 5801 5805 5809 5814 5820 5823 5827 5831 5835
5712 5713 5715 5715 5716 5718 5719 5721 5723 5725 5727 5728 5731 5733 5735 5737 5739 5741 5743 5744 5747 5749 5749 5751 5752 5754 5756 5759 5761 5763 5765 5768 5772 5776 5779 5781 5785 5789 5794 5799 5804 5810 5816 5820